Powrót do katalogu

STARLINK-36307

AktywnyŁącznośćSSO
NORAD 68306·PAYLOAD·🇺🇸 United States

Wystrzelony Mar 20, 2026 z Vandenberg Space Force Base

Loading…

Następne Przeloty (najbliższe 24 godziny)

TLE

ŚwieżeSource: CelesTrak SupGP

Epoka: Sep 14, 2026, 20:57 UTC

1 68306C 26057N   26257.87340278 -.00088761  00000+0 -27555-2 0  2578
2 68306  97.2859  23.3392 0001171 105.3966 139.5272 15.33483091    14

Śledź STARLINK-36307 w czasie rzeczywistym z AllMySat

Download on the App Store